This is the latest recevied weather packets stored in our database for station/object W6MAF. If no packets are shown the sender has not sent any weather packets the latest 10 day(s).
| Time | Temp. | Humidity | Pressure | Rain* | Wind** | Luminosity | Snow |
|---|---|---|---|---|---|---|---|
| 1787969377 | 29.44° C | 10% | - | 0 mm | 5.81 m/s, 214° | - | - |
| 1787969079 | 30° C | 10% | - | 0 mm | 6.71 m/s, 211° | - | - |
| 1787968781 | 30° C | 10% | - | 0 mm | 6.71 m/s, 204° | - | - |
| 1787968183 | 30° C | 10% | - | 0 mm | 6.71 m/s, 200° | - | - |
| 1787967885 | 30.56° C | 9% | - | 0 mm | 5.81 m/s, 176° | - | - |
| 1787966991 | 31.11° C | 8% | - | 0 mm | 7.15 m/s, 188° | - | - |
| 1787966694 | 31.67° C | 7% | - | 0 mm | 6.71 m/s, 173° | - | - |
| 1787966393 | 31.67° C | 7% | - | 0 mm | 5.81 m/s, 162° | - | - |
| 1787966095 | 32.22° C | 6% | - | 0 mm | 5.81 m/s, 187° | - | - |
| 1787965797 | 32.22° C | 6% | - | 0 mm | 6.71 m/s, 183° | - | - |
| 1787965499 | 32.22° C | 6% | - | 0 mm | 5.36 m/s, 165° | - | - |
| 1787965203 | 32.78° C | 6% | - | 0 mm | 6.71 m/s, 190° | - | - |
| 1787964007 | 32.78° C | 6% | - | 0 mm | 4.47 m/s, 184° | - | - |
| 1787963710 | 32.78° C | 6% | - | 0 mm | 8.05 m/s, 166° | - | - |
| 1787963412 | 32.78° C | 6% | - | 0 mm | 8.49 m/s, 191° | - | - |
| 1787963115 | 32.78° C | 6% | - | 0 mm | 5.81 m/s, 181° | - | - |
| 1787962549 | 33.33° C | 6% | - | 0 mm | 7.6 m/s, 184° | - | - |
| 1787962515 | 33.33° C | 6% | - | 0 mm | 7.6 m/s, 184° | - | - |
| 1787962217 | 33.33° C | 6% | - | 0 mm | 7.15 m/s, 200° | - | - |
| 1787961920 | 33.33° C | 6% | - | 0 mm | 4.92 m/s, 172° | - | - |
| 1787961623 | 33.33° C | 6% | - | 0 mm | 5.81 m/s, 224° | - | - |
| 1787961063 | 33.33° C | 6% | - | 0 mm | 5.81 m/s, 211° | - | - |
| 1787961023 | 33.33° C | 6% | - | 0 mm | 5.81 m/s, 211° | - | - |
| 1787960725 | 33.89° C | 5% | - | 0 mm | 6.71 m/s, 184° | - | - |
| 1787959832 | 33.89° C | 6% | - | 0 mm | 6.71 m/s, 198° | - | - |
* Rain latest hour (hover to see other rain measurements)
** Current wind speed in m/s (hover to see current wind gust speed)